Hourly Weather Franceville

Today, 9 July, Thursday

Time Temperature Precipitation Wind Pressure Humidity
00:00 +27°C° 0 mm 1 mps 730 mmHg 66%
01:00 +27°C° 0 mm 1 mps 730 mmHg 73%
02:00 +27°C° 0.1 mm 1 mps 730 mmHg 76%
03:00 +24°C° 0.1 mm 0 mps 730 mmHg 79%
04:00 +24°C° 0.1 mm 0 mps 730 mmHg 83%
05:00 +24°C° 0 mm 0 mps 730 mmHg 82%
06:00 +24°C° 0 mm 0 mps 730 mmHg 82%
07:00 +24°C° 0 mm 0 mps 731 mmHg 82%
08:00 +26°C° 0 mm 0 mps 731 mmHg 73%
09:00 +31°C° 0 mm 1 mps 731 mmHg 63%
10:00 +33°C° 0 mm 1 mps 731 mmHg 54%
11:00 +34°C° 0.1 mm 1 mps 731 mmHg 50%
12:00 +33°C° 0.1 mm 0 mps 730 mmHg 45%
13:00 +35°C° 0.1 mm 0 mps 730 mmHg 41%
14:00 +33°C° 0.3 mm 0 mps 729 mmHg 46%
15:00 +34°C° 0.3 mm 1 mps 729 mmHg 52%
16:00 +32°C° 0.3 mm 1 mps 728 mmHg 57%
17:00 +30°C° 1 mm 1 mps 729 mmHg 66%
18:00 +28°C° 1 mm 1 mps 729 mmHg 76%
19:00 +26°C° 1 mm 1 mps 729 mmHg 85%
20:00 +26°C° 0.3 mm 1 mps 730 mmHg 86%
21:00 +26°C° 0.3 mm 1 mps 730 mmHg 87%
22:00 +26°C° 0.3 mm 1 mps 731 mmHg 88%
23:00 +26°C° 0.8 mm 1 mps 731 mmHg 88%

Tomorrow, 10 July, Friday

Time Temperature Precipitation Wind Pressure Humidity
00:00 +25°C° 0.8 mm 1 mps 731 mmHg 88%
01:00 +25°C° 0.8 mm 2 mps 731 mmHg 88%
02:00 +25°C° 0.1 mm 1 mps 731 mmHg 90%
03:00 +24°C° 0.1 mm 1 mps 731 mmHg 92%
04:00 +24°C° 0.1 mm 1 mps 731 mmHg 94%
05:00 +24°C° 0.1 mm 1 mps 731 mmHg 93%
06:00 +24°C° 0.1 mm 1 mps 731 mmHg 92%
07:00 +24°C° 0.1 mm 1 mps 732 mmHg 91%
08:00 +25°C° 0 mm 1 mps 732 mmHg 87%
09:00 +25°C° 0 mm 2 mps 732 mmHg 83%
10:00 +26°C° 0 mm 2 mps 732 mmHg 79%
11:00 +27°C° 0 mm 2 mps 732 mmHg 73%
12:00 +28°C° 0 mm 1 mps 732 mmHg 68%
13:00 +29°C° 0 mm 1 mps 732 mmHg 63%
14:00 +29°C° 0 mm 1 mps 731 mmHg 64%
15:00 +29°C° 0 mm 1 mps 730 mmHg 65%
16:00 +29°C° 0 mm 1 mps 729 mmHg 67%
17:00 +28°C° 0.1 mm 1 mps 730 mmHg 71%
18:00 +27°C° 0.1 mm 1 mps 730 mmHg 76%
19:00 +27°C° 0.1 mm 1 mps 731 mmHg 80%
20:00 +26°C° 0.1 mm 1 mps 731 mmHg 80%
21:00 +26°C° 0.1 mm 1 mps 732 mmHg 81%
22:00 +26°C° 0.1 mm 1 mps 732 mmHg 81%
23:00 +26°C° 0 mm 1 mps 732 mmHg 82%

Day after tomorrow, 11 July, Saturday

Time Temperature Precipitation Wind Pressure Humidity
00:00 +25°C° 0 mm 1 mps 732 mmHg 83%
01:00 +25°C° 0 mm 1 mps 732 mmHg 85%
02:00 +24°C° 0 mm 1 mps 731 mmHg 86%
03:00 +24°C° 0 mm 1 mps 731 mmHg 88%
04:00 +23°C° 0 mm 1 mps 731 mmHg 89%
05:00 +24°C° 0 mm 1 mps 731 mmHg 88%
06:00 +24°C° 0 mm 1 mps 732 mmHg 87%
07:00 +24°C° 0 mm 1 mps 732 mmHg 85%
08:00 +26°C° 0 mm 1 mps 733 mmHg 77%
09:00 +27°C° 0 mm 2 mps 733 mmHg 70%
10:00 +29°C° 0 mm 2 mps 733 mmHg 62%
11:00 +29°C° 0 mm 2 mps 733 mmHg 59%
12:00 +30°C° 0 mm 1 mps 732 mmHg 56%
13:00 +31°C° 0 mm 1 mps 732 mmHg 53%
14:00 +31°C° 0 mm 1 mps 731 mmHg 54%
15:00 +31°C° 0 mm 1 mps 731 mmHg 54%
16:00 +31°C° 0 mm 1 mps 730 mmHg 54%
17:00 +30°C° 0 mm 1 mps 730 mmHg 61%
18:00 +28°C° 0 mm 1 mps 731 mmHg 67%
19:00 +27°C° 0 mm 1 mps 731 mmHg 74%
20:00 +27°C° 0 mm 1 mps 731 mmHg 76%
21:00 +26°C° 0 mm 1 mps 732 mmHg 78%
22:00 +26°C° 0 mm 1 mps 732 mmHg 80%
23:00 +25°C° 0 mm 1 mps 732 mmHg 81%

12 July, Sunday

Time Temperature Precipitation Wind Pressure Humidity
00:00 +25°C° 0 mm 1 mps 732 mmHg 83%
01:00 +24°C° 0 mm 1 mps 732 mmHg 85%
02:00 +24°C° 0 mm 1 mps 732 mmHg 85%
03:00 +24°C° 0 mm 1 mps 731 mmHg 85%
04:00 +23°C° 0 mm 1 mps 731 mmHg 86%
05:00 +23°C° 0 mm 1 mps 732 mmHg 85%
06:00 +23°C° 0 mm 1 mps 732 mmHg 85%
07:00 +23°C° 0 mm 1 mps 732 mmHg 85%
08:00 +25°C° 0 mm 1 mps 733 mmHg 77%
09:00 +27°C° 0 mm 1 mps 733 mmHg 69%
10:00 +29°C° 0 mm 1 mps 733 mmHg 60%
11:00 +30°C° 0 mm 1 mps 733 mmHg 57%
12:00 +31°C° 0 mm 1 mps 732 mmHg 54%
13:00 +32°C° 0 mm 1 mps 732 mmHg 51%
14:00 +32°C° 0 mm 1 mps 731 mmHg 51%
15:00 +32°C° 0 mm 1 mps 730 mmHg 51%
16:00 +32°C° 0 mm 1 mps 730 mmHg 51%
17:00 +31°C° 0.2 mm 1 mps 730 mmHg 58%
18:00 +29°C° 0.2 mm 1 mps 731 mmHg 65%
19:00 +28°C° 0.2 mm 1 mps 731 mmHg 72%
20:00 +27°C° 0.6 mm 1 mps 731 mmHg 75%
21:00 +26°C° 0.6 mm 1 mps 732 mmHg 77%
22:00 +26°C° 0.6 mm 1 mps 732 mmHg 80%
23:00 +25°C° 0 mm 1 mps 732 mmHg 81%

13 July, Monday

Time Temperature Precipitation Wind Pressure Humidity
00:00 +25°C° 0 mm 1 mps 732 mmHg 83%
01:00 +22°C° 0 mm 0 mps 732 mmHg 84%
02:00 +22°C° 0.1 mm 0 mps 732 mmHg 85%
03:00 +21°C° 0.1 mm 0 mps 732 mmHg 86%
04:00 +21°C° 0.1 mm 0 mps 731 mmHg 87%
05:00 +21°C° 0 mm 0 mps 732 mmHg 87%
06:00 +21°C° 0 mm 0 mps 732 mmHg 87%
07:00 +22°C° 0 mm 0 mps 732 mmHg 86%
08:00 +22°C° 0 mm 0 mps 732 mmHg 83%
09:00 +23°C° 0 mm 0 mps 732 mmHg 79%
10:00 +24°C° 0 mm 0 mps 733 mmHg 75%
11:00 +24°C° 0 mm 0 mps 732 mmHg 73%
12:00 +27°C° 0 mm 1 mps 731 mmHg 70%
13:00 +28°C° 0 mm 1 mps 731 mmHg 68%
14:00 +28°C° 0 mm 1 mps 730 mmHg 66%
15:00 +29°C° 0 mm 1 mps 729 mmHg 64%
16:00 +29°C° 0 mm 1 mps 729 mmHg 62%
17:00 +28°C° 0 mm 1 mps 729 mmHg 67%
18:00 +27°C° 0 mm 1 mps 729 mmHg 72%
19:00 +24°C° 0 mm 0 mps 730 mmHg 77%
20:00 +23°C° 0 mm 0 mps 730 mmHg 78%
21:00 +23°C° 0 mm 0 mps 731 mmHg 80%
22:00 +25°C° 0 mm 1 mps 731 mmHg 81%
23:00 +23°C° 0 mm 0 mps 731 mmHg 83%

14 July, Tuesday

Time Temperature Precipitation Wind Pressure Humidity
00:00 +22°C° 0 mm 0 mps 731 mmHg 84%
01:00 +22°C° 0 mm 0 mps 731 mmHg 86%
02:00 +22°C° 0 mm 0 mps 731 mmHg 84%
03:00 +22°C° 0 mm 0 mps 731 mmHg 82%
04:00 +22°C° 0 mm 0 mps 731 mmHg 80%
05:00 +24°C° 0 mm 1 mps 731 mmHg 80%
06:00 +24°C° 0 mm 1 mps 731 mmHg 80%
07:00 +24°C° 0 mm 1 mps 732 mmHg 81%
08:00 +26°C° 0 mm 1 mps 732 mmHg 73%
09:00 +28°C° 0 mm 1 mps 733 mmHg 65%
10:00 +30°C° 0 mm 1 mps 733 mmHg 58%
11:00 +31°C° 0 mm 1 mps 732 mmHg 55%
12:00 +32°C° 0 mm 1 mps 732 mmHg 52%
13:00 +33°C° 0 mm 1 mps 731 mmHg 49%
14:00 +32°C° 0 mm 1 mps 730 mmHg 51%
15:00 +32°C° 0 mm 1 mps 730 mmHg 53%
16:00 +31°C° 0 mm 1 mps 729 mmHg 55%
17:00 +30°C° 0.4 mm 1 mps 729 mmHg 62%
18:00 +28°C° 0.4 mm 1 mps 730 mmHg 70%
19:00 +27°C° 0.4 mm 1 mps 730 mmHg 77%
20:00 +26°C° 0.4 mm 1 mps 730 mmHg 79%
21:00 +26°C° 0.4 mm 1 mps 731 mmHg 82%
22:00 +25°C° 0.4 mm 1 mps 732 mmHg 84%
23:00 +25°C° 0 mm 1 mps 731 mmHg 84%
Show more